TimeEST,TemperatureF,Dew PointF,Humidity,Sea Level PressureIn,VisibilityMPH,Wind Direction,Wind SpeedMPH,Gust SpeedMPH,PrecipitationIn,Events,Conditions,WindDirDegrees,DateUTC
12:35 AM,33.8,33.8,100,30.05,4.0,ENE,4.6,-,N/A,Snow,Light Snow,60,2013-02-08 05:35:00
1:15 AM,33.8,33.8,100,30.04,1.2,ENE,3.5,-,N/A,Snow,Light Snow,70,2013-02-08 06:15:00
2:37 AM,33.8,33.8,100,29.99,2.5,NE,3.5,-,N/A,Snow,Light Snow,50,2013-02-08 07:37:00
2:55 AM,33.8,33.8,100,29.98,3.0,NE,3.5,-,N/A,Snow,Light Snow,40,2013-02-08 07:55:00
3:15 AM,33.8,33.8,100,29.98,3.0,Calm,Calm,-,N/A,Snow,Light Snow,0,2013-02-08 08:15:00
3:35 AM,33.8,33.8,100,29.97,5.0,Calm,Calm,-,N/A,Snow,Light Snow,0,2013-02-08 08:35:00
3:55 AM,33.8,33.8,100,29.96,7.0,Calm,Calm,-,N/A,,Overcast,0,2013-02-08 08:55:00
4:55 AM,33.8,33.8,100,29.95,7.0,Calm,Calm,-,N/A,,Overcast,0,2013-02-08 09:55:00
5:15 AM,33.8,33.8,100,29.94,7.0,Calm,Calm,-,N/A,,Overcast,0,2013-02-08 10:15:00
5:37 AM,33.8,33.8,100,29.94,7.0,Calm,Calm,-,N/A,,Overcast,0,2013-02-08 10:37:00
5:57 AM,33.8,33.8,100,29.94,7.0,Calm,Calm,-,N/A,,Overcast,0,2013-02-08 10:57:00
6:15 AM,33.8,33.8,100,29.93,7.0,Calm,Calm,-,N/A,,Overcast,0,2013-02-08 11:15:00
6:55 AM,33.8,33.8,100,29.93,2.5,Calm,Calm,-,N/A,,Overcast,0,2013-02-08 11:55:00
7:17 AM,33.8,33.8,100,29.92,1.2,Calm,Calm,-,N/A,,Overcast,0,2013-02-08 12:17:00
7:37 AM,33.8,33.8,100,29.93,1.0,Calm,Calm,-,N/A,,Overcast,0,2013-02-08 12:37:00
7:55 AM,33.8,33.8,100,29.92,0.5,Calm,Calm,-,N/A,Fog,Fog,0,2013-02-08 12:55:00
8:57 AM,33.8,33.8,100,29.92,0.2,Calm,Calm,-,N/A,Fog,Fog,0,2013-02-08 13:57:00
9:15 AM,33.8,33.8,100,29.91,0.2,West,3.5,-,N/A,Fog,Fog,260,2013-02-08 14:15:00
9:37 AM,35.6,35.6,100,29.91,0.2,Calm,Calm,-,N/A,Fog,Fog,0,2013-02-08 14:37:00
9:58 AM,35.6,35.6,100,29.90,0.2,West,3.5,-,N/A,Fog,Fog,280,2013-02-08 14:58:00
10:17 AM,35.6,35.6,100,29.90,0.2,West,3.5,-,N/A,Rain,Light Rain,270,2013-02-08 15:17:00
10:35 AM,35.6,35.6,100,29.89,0.2,West,3.5,-,N/A,Fog,Fog,260,2013-02-08 15:35:00
10:55 AM,37.4,37.4,100,29.89,1.0,West,3.5,-,N/A,,Overcast,270,2013-02-08 15:55:00
11:15 AM,37.4,37.4,100,29.89,1.0,West,4.6,-,N/A,,Overcast,270,2013-02-08 16:15:00
11:37 AM,37.4,37.4,100,29.88,0.5,Calm,Calm,-,N/A,Fog,Fog,0,2013-02-08 16:37:00
11:58 AM,37.4,37.4,100,29.87,2.0,WNW,4.6,-,N/A,,Overcast,290,2013-02-08 16:58:00
12:17 PM,37.4,37.4,100,29.87,3.0,WNW,4.6,-,0.03,,Overcast,290,2013-02-08 17:17:00
12:37 PM,39.2,39.2,100,29.86,5.0,West,3.5,-,0.06,,Overcast,270,2013-02-08 17:37:00
12:57 PM,39.2,39.2,100,29.86,10.0,West,6.9,-,N/A,,Overcast,270,2013-02-08 17:57:00
1:15 PM,44.6,44.6,100,29.85,10.0,West,6.9,-,0.05,,Overcast,270,2013-02-08 18:15:00
1:37 PM,46.4,42.8,87,29.84,10.0,WNW,12.7,21.9,0.12,,Overcast,290,2013-02-08 18:37:00
1:55 PM,46.4,42.8,87,29.84,10.0,West,12.7,20.7,0.18,,Mostly Cloudy,280,2013-02-08 18:55:00
2:15 PM,48.2,41.0,76,29.83,10.0,WNW,13.8,28.8,0.06,,Mostly Cloudy,290,2013-02-08 19:15:00
2:37 PM,48.2,39.2,71,29.83,10.0,WNW,17.3,28.8,0.06,,Overcast,290,2013-02-08 19:37:00
2:55 PM,46.4,39.2,76,29.84,10.0,NW,25.3,33.4,0.06,,Mostly Cloudy,310,2013-02-08 19:55:00
3:35 PM,44.6,37.4,76,29.88,10.0,WNW,21.9,32.2,N/A,,Scattered Clouds,300,2013-02-08 20:35:00
3:55 PM,42.8,35.6,76,29.90,10.0,WNW,17.3,33.4,N/A,,Mostly Cloudy,300,2013-02-08 20:55:00
4:17 PM,41.0,32.0,70,29.92,10.0,WNW,18.4,36.8,N/A,,Overcast,300,2013-02-08 21:17:00
4:35 PM,41.0,32.0,70,29.93,10.0,WNW,15.0,29.9,N/A,,Overcast,300,2013-02-08 21:35:00
5:37 PM,37.4,30.2,75,29.96,10.0,WNW,13.8,25.3,N/A,,Overcast,300,2013-02-08 22:37:00
5:57 PM,37.4,30.2,75,29.97,10.0,WNW,10.4,31.1,N/A,,Overcast,290,2013-02-08 22:57:00
6:37 PM,37.4,30.2,75,29.98,10.0,West,13.8,24.2,N/A,,Overcast,270,2013-02-08 23:37:00
6:55 PM,37.4,30.2,75,29.99,10.0,West,12.7,28.8,N/A,,Overcast,280,2013-02-08 23:55:00
7:15 PM,37.4,30.2,75,30.00,10.0,WNW,13.8,20.7,N/A,,Overcast,300,2013-02-09 00:15:00
7:37 PM,37.4,30.2,75,30.01,10.0,WNW,15.0,31.1,N/A,,Overcast,300,2013-02-09 00:37:00
7:58 PM,37.4,30.2,75,30.01,10.0,WNW,10.4,24.2,N/A,,Overcast,290,2013-02-09 00:58:00
8:15 PM,37.4,30.2,75,30.01,10.0,West,10.4,23.0,N/A,,Overcast,280,2013-02-09 01:15:00
8:35 PM,35.6,30.2,81,30.02,10.0,WNW,17.3,27.6,N/A,,Overcast,300,2013-02-09 01:35:00
9:15 PM,35.6,30.2,81,30.04,10.0,WNW,18.4,26.5,N/A,,Overcast,300,2013-02-09 02:15:00
9:35 PM,35.6,30.2,81,30.05,10.0,WNW,21.9,28.8,N/A,,Overcast,300,2013-02-09 02:35:00
9:57 PM,35.6,28.4,75,30.06,10.0,WNW,12.7,25.3,N/A,,Overcast,290,2013-02-09 02:57:00
10:16 PM,35.6,28.4,75,30.07,10.0,WNW,16.1,29.9,N/A,,Overcast,290,2013-02-09 03:16:00
10:37 PM,35.6,28.4,75,30.08,10.0,WNW,19.6,28.8,N/A,,Overcast,300,2013-02-09 03:37:00
10:57 PM,33.8,28.4,81,30.09,10.0,WNW,18.4,31.1,N/A,,Overcast,300,2013-02-09 03:57:00
11:18 PM,33.8,26.6,75,30.08,10.0,WNW,18.4,29.9,N/A,,Overcast,290,2013-02-09 04:18:00
11:35 PM,33.8,26.6,75,30.09,10.0,WNW,15.0,26.5,N/A,,Overcast,290,2013-02-09 04:35:00
11:55 PM,33.8,26.6,75,30.10,10.0,WNW,16.1,28.8,N/A,,Overcast,300,2013-02-09 04:55:00